| time (UTC) | temp C | wind direction | speed KPH | gust KPH | rain 1hr cm | rain 24hr cm | rain mn cm | humidity % | barometer mb |
| 20260505041511 | 12 | 193 | 4.8 | 11.3 | 319.79 | 0.00 | 0.00 | 62 | 1010.5 |
| 20260505040011 | 12 | 224 | 3.2 | 8.0 | 319.79 | 0.00 | 0.00 | 61 | 1010.3 |
| 20260505035010 | 13 | 212 | 3.2 | 9.7 | 319.79 | 0.00 | 0.00 | 60 | 1010.3 |
| 20260505034511 | 13 | 193 | 4.8 | 9.7 | 319.79 | 0.00 | 0.00 | 60 | 1010.3 |
| 20260505034010 | 13 | 228 | 1.6 | 9.7 | 319.79 | 0.00 | 0.00 | 59 | 1010.3 |
| 20260505033512 | 13 | 201 | 6.4 | 9.7 | 319.79 | 0.00 | 0.00 | 59 | 1010.2 |
| 20260505033011 | 13 | 173 | 3.2 | 8.0 | 319.79 | 0.00 | 0.00 | 59 | 1010.2 |
| 20260505032010 | 13 | 228 | 1.6 | 12.9 | 319.79 | 0.00 | 0.00 | 58 | 1010.1 |
| 20260505031512 | 13 | 211 | 4.8 | 12.9 | 319.79 | 0.00 | 0.00 | 57 | 1010.1 |
| 20260505031011 | 13 | 198 | 4.8 | 9.7 | 319.79 | 0.00 | 0.00 | 57 | 1010.3 |
| 20260505030017 | 14 | 198 | 3.2 | 9.7 | 319.79 | 0.00 | 0.00 | 56 | 1010.2 |
| 20260505025510 | 14 | 238 | 3.2 | 8.0 | 319.79 | 0.00 | 0.00 | 56 | 1010.1 |
| 20260505025010 | 14 | 201 | 4.8 | 14.5 | 319.79 | 0.00 | 0.00 | 56 | 1010.1 |
| 20260505024511 | 14 | 233 | 4.8 | 11.3 | 319.79 | 0.00 | 0.00 | 56 | 1010.0 |
| 20260505024011 | 14 | 221 | 3.2 | 17.7 | 319.79 | 0.00 | 0.00 | 55 | 1010.0 |
| 20260505023514 | 14 | 183 | 4.8 | 22.5 | 319.79 | 0.00 | 0.00 | 55 | 1010.1 |
| 20260505023011 | 14 | 210 | 4.8 | 14.5 | 319.79 | 0.00 | 0.00 | 55 | 1010.2 |
| 20260505022510 | 14 | 214 | 4.8 | 9.7 | 319.79 | 0.00 | 0.00 | 55 | 1010.2 |
| 20260505022010 | 15 | 193 | 3.2 | 14.5 | 319.79 | 0.00 | 0.00 | 54 | 1010.2 |
| 20260505021511 | 15 | 232 | 1.6 | 11.3 | 319.79 | 0.00 | 0.00 | 54 | 1010.2 |
| 20260505021010 | 15 | 218 | 3.2 | 14.5 | 319.79 | 0.00 | 0.00 | 54 | 1010.2 |
| 20260505020510 | 15 | 217 | 8.0 | 25.7 | 319.79 | 0.00 | 0.00 | 52 | 1010.2 |
| 20260505020011 | 15 | 221 | 16.1 | 17.7 | 319.79 | 0.00 | 0.00 | 53 | 1010.2 |
| 20260505015510 | 15 | 194 | 6.4 | 16.1 | 319.79 | 0.00 | 0.00 | 53 | 1010.2 |
| 20260505015010 | 15 | 203 | 6.4 | 16.1 | 319.79 | 0.00 | 0.00 | 52 | 1010.1 |
| 20260505014511 | 15 | 235 | 6.4 | 19.3 | 319.79 | 0.00 | 0.00 | 51 | 1010.1 |
| 20260505014012 | 15 | 148 | 4.8 | 14.5 | 319.79 | 0.00 | 0.00 | 51 | 1010.0 |
| 20260505013510 | 15 | 184 | 6.4 | 19.3 | 319.79 | 0.00 | 0.00 | 51 | 1009.9 |
| 20260505013011 | 15 | 232 | 4.8 | 14.5 | 319.79 | 0.00 | 0.00 | 51 | 1009.9 |
| 20260505012510 | 16 | 165 | 4.8 | 16.1 | 319.79 | 0.00 | 0.00 | 50 | 1009.8 |
| 20260505012010 | 16 | 191 | 3.2 | 17.7 | 319.79 | 0.00 | 0.00 | 49 | 1009.7 |
| 20260505011511 | 16 | 190 | 12.9 | 16.1 | 319.79 | 0.00 | 0.00 | 48 | 1009.6 |
| 20260505011012 | 16 | 200 | 8.0 | 25.7 | 319.79 | 0.00 | 0.00 | 49 | 1009.5 |
| 20260505010510 | 16 | 203 | 9.7 | 16.1 | 319.79 | 0.00 | 0.00 | 48 | 1009.6 |
| 20260505010015 | 16 | 217 | 1.6 | 14.5 | 319.79 | 0.00 | 0.00 | 48 | 1009.4 |
| 20260505005510 | 16 | 311 | 6.4 | 16.1 | 319.79 | 0.00 | 0.00 | 46 | 1009.4 |
| 20260505005010 | 16 | 214 | 6.4 | 22.5 | 319.79 | 0.00 | 0.00 | 47 | 1009.3 |
| 20260505004510 | 16 | 184 | 6.4 | 14.5 | 319.79 | 0.00 | 0.00 | 46 | 1009.1 |
| 20260505004010 | 17 | 207 | 9.7 | 25.7 | 319.79 | 0.00 | 0.00 | 45 | 1009.0 |
| 20260505003510 | 17 | 219 | 8.0 | 24.1 | 319.79 | 0.00 | 0.00 | 46 | 1008.9 |
| 20260505003013 | 17 | 210 | 9.7 | 24.1 | 319.79 | 0.00 | 0.00 | 45 | 1008.7 |
| 20260505002510 | 17 | 208 | 6.4 | 30.6 | 319.79 | 0.00 | 0.00 | 45 | 1008.5 |
| 20260505002011 | 17 | 155 | 9.7 | 16.1 | 319.79 | 0.00 | 0.00 | 44 | 1008.3 |
| 20260505001510 | 17 | 197 | 3.2 | 29.0 | 319.79 | 0.00 | 0.00 | 43 | 1008.2 |
| 20260505000510 | 17 | 210 | 12.9 | 20.9 | 319.79 | 0.00 | 0.00 | 41 | 1008.1 |
| 20260505000010 | 17 | 177 | 8.0 | 25.7 | 319.79 | 0.00 | 0.00 | 40 | 1008.0 |
| 20260504235010 | 18 | 276 | 1.6 | 4.8 | 319.79 | 0.00 | 0.00 | 38 | 1007.7 |
| 20260504234511 | 18 | 290 | 1.6 | 4.8 | 319.79 | 0.00 | 0.00 | 37 | 1007.7 |
| 20260504234011 | 18 | 215 | 3.2 | 6.4 | 319.79 | 0.00 | 0.00 | 37 | 1007.5 |
| 20260504233512 | 18 | 212 | 3.2 | 14.5 | 319.79 | 0.00 | 0.00 | 36 | 1007.4 |
| 20260504233012 | 19 | 201 | 4.8 | 14.5 | 319.79 | 0.00 | 0.00 | 35 | 1007.3 |
| 20260504232510 | 19 | 288 | 3.2 | 6.4 | 319.79 | 0.00 | 0.00 | 34 | 1007.3 |
| 20260504232012 | 19 | 293 | 3.2 | 17.7 | 319.79 | 0.00 | 0.00 | 34 | 1007.2 |
| 20260504231510 | 19 | 273 | 11.3 | 11.3 | 319.79 | 0.00 | 0.00 | 31 | 1007.2 |
| 20260504231011 | 20 | 201 | 3.2 | 16.1 | 319.79 | 0.00 | 0.00 | 33 | 1007.1 |
| 20260504230011 | 20 | 179 | 9.7 | 16.1 | 319.79 | 0.00 | 0.00 | 31 | 1007.0 |
| 20260504225513 | 20 | 273 | 8.0 | 17.7 | 319.79 | 0.00 | 0.00 | 31 | 1006.9 |
| 20260504225011 | 20 | 315 | 8.0 | 27.4 | 319.79 | 0.00 | 0.00 | 32 | 1006.9 |
| 20260504224511 | 20 | 300 | 4.8 | 17.7 | 319.79 | 0.00 | 0.00 | 31 | 1006.8 |
| 20260504223011 | 21 | 285 | 8.0 | 22.5 | 319.79 | 0.00 | 0.00 | 29 | 1006.6 |
| 20260504222510 | 21 | 302 | 8.0 | 16.1 | 319.79 | 0.00 | 0.00 | 31 | 1006.7 |
| 20260504222011 | 21 | 243 | 9.7 | 17.7 | 319.79 | 0.00 | 0.00 | 30 | 1006.7 |
| 20260504221510 | 21 | 252 | 6.4 | 17.7 | 319.79 | 0.00 | 0.00 | 30 | 1006.7 |
| 20260504221010 | 21 | 264 | 8.0 | 17.7 | 319.79 | 0.00 | 0.00 | 28 | 1006.7 |
| 20260504220510 | 21 | 297 | 11.3 | 22.5 | 319.79 | 0.00 | 0.00 | 30 | 1006.8 |
| 20260504220011 | 21 | 298 | 12.9 | 24.1 | 319.79 | 0.00 | 0.00 | 29 | 1006.8 |
| 20260504215510 | 21 | 297 | 8.0 | 20.9 | 319.79 | 0.00 | 0.00 | 29 | 1006.7 |
| 20260504215013 | 21 | 259 | 8.0 | 16.1 | 319.79 | 0.00 | 0.00 | 30 | 1006.8 |
| 20260504214511 | 21 | 231 | 8.0 | 16.1 | 319.79 | 0.00 | 0.00 | 29 | 1006.7 |
| 20260504214010 | 21 | 114 | 8.0 | 14.5 | 319.79 | 0.00 | 0.00 | 29 | 1006.7 |
| 20260504213011 | 21 | 250 | 4.8 | 14.5 | 319.79 | 0.00 | 0.00 | 29 | 1006.7 |
| 20260504212510 | 22 | 271 | 6.4 | 17.7 | 319.79 | 0.00 | 0.00 | 28 | 1006.8 |
| 20260504212010 | 21 | 221 | 8.0 | 16.1 | 319.79 | 0.00 | 0.00 | 29 | 1006.8 |
| 20260504211511 | 21 | 273 | 8.0 | 27.4 | 319.79 | 0.00 | 0.00 | 28 | 1006.8 |
| 20260504211009 | 22 | 235 | 12.9 | 22.5 | 319.79 | 0.00 | 0.00 | 26 | 1006.8 |
| 20260504210511 | 21 | 232 | 3.2 | 22.5 | 319.79 | 0.00 | 0.00 | 29 | 1006.8 |
| 20260504210011 | 21 | 274 | 11.3 | 27.4 | 319.79 | 0.00 | 0.00 | 28 | 1006.7 |
| 20260504205509 | 21 | 287 | 17.7 | 27.4 | 319.79 | 0.00 | 0.00 | 27 | 1006.7 |
| 20260504205009 | 21 | 285 | 6.4 | 27.4 | 319.79 | 0.00 | 0.00 | 29 | 1006.8 |
| 20260504204511 | 21 | 252 | 8.0 | 17.7 | 319.79 | 0.00 | 0.00 | 28 | 1006.7 |
| 20260504204009 | 21 | 290 | 4.8 | 29.0 | 319.79 | 0.00 | 0.00 | 30 | 1006.7 |
| 20260504203012 | 21 | 266 | 11.3 | 17.7 | 319.79 | 0.00 | 0.00 | 26 | 1006.7 |
| 20260504202509 | 21 | 284 | 8.0 | 22.5 | 319.79 | 0.00 | 0.00 | 28 | 1006.7 |
| 20260504202009 | 20 | 284 | 11.3 | 25.7 | 319.79 | 0.00 | 0.00 | 29 | 1006.7 |
| 20260504201511 | 21 | 273 | 6.4 | 25.7 | 319.79 | 0.00 | 0.00 | 29 | 1006.8 |
| 20260504201009 | 21 | 273 | 6.4 | 30.6 | 319.79 | 0.00 | 0.00 | 30 | 1006.8 |
| 20260504200012 | 21 | 212 | 9.7 | 25.7 | 319.79 | 0.00 | 0.00 | 29 | 1006.7 |
| 20260504195009 | 22 | 274 | 17.7 | 22.5 | 319.79 | 0.00 | 0.00 | 26 | 1006.8 |
| 20260504194511 | 22 | 277 | 11.3 | 25.7 | 319.79 | 0.00 | 0.00 | 25 | 1006.8 |
| 20260504193510 | 21 | 264 | 6.4 | 22.5 | 319.79 | 0.00 | 0.00 | 28 | 1006.8 |
| 20260504193010 | 21 | 298 | 11.3 | 20.9 | 319.79 | 0.00 | 0.00 | 26 | 1006.8 |
| 20260504192509 | 21 | 276 | 9.7 | 25.7 | 319.79 | 0.00 | 0.00 | 27 | 1006.8 |
| 20260504192009 | 21 | 255 | 8.0 | 20.9 | 319.79 | 0.00 | 0.00 | 27 | 1006.9 |
| 20260504191510 | 22 | 273 | 9.7 | 25.7 | 319.79 | 0.00 | 0.00 | 25 | 1006.8 |
| 20260504190509 | 21 | 288 | 14.5 | 22.5 | 319.79 | 0.00 | 0.00 | 24 | 1006.8 |
| 20260504190012 | 21 | 264 | 12.9 | 24.1 | 319.79 | 0.00 | 0.00 | 26 | 1006.9 |
| 20260504185509 | 21 | 270 | 12.9 | 25.7 | 319.79 | 0.00 | 0.00 | 28 | 1007.0 |
| 20260504185009 | 21 | 177 | 11.3 | 29.0 | 319.79 | 0.00 | 0.00 | 27 | 1007.1 |
| 20260504184510 | 21 | 274 | 14.5 | 22.5 | 319.79 | 0.00 | 0.00 | 27 | 1007.1 |
| 20260504184011 | 21 | 293 | 12.9 | 27.4 | 319.79 | 0.00 | 0.00 | 28 | 1007.1 |
| 20260504183509 | 21 | 273 | 14.5 | 30.6 | 319.79 | 0.00 | 0.00 | 24 | 1007.3 |
| 20260504183010 | 21 | 274 | 14.5 | 24.1 | 319.79 | 0.00 | 0.00 | 26 | 1007.3 |
| 20260504182509 | 21 | 278 | 6.4 | 20.9 | 319.79 | 0.00 | 0.00 | 26 | 1007.3 |
| 20260504182009 | 21 | 294 | 11.3 | 38.6 | 319.79 | 0.00 | 0.00 | 27 | 1007.4 |
| 20260504181512 | 21 | 290 | 16.1 | 24.1 | 319.79 | 0.00 | 0.00 | 26 | 1007.4 |
| 20260504180010 | 21 | 222 | 8.0 | 37.0 | 319.79 | 0.00 | 0.00 | 30 | 1007.3 |
| 20260504174510 | 20 | 278 | 14.5 | 37.0 | 319.79 | 0.00 | 0.00 | 27 | 1007.4 |
| 20260504174009 | 20 | 274 | 17.7 | 35.4 | 319.79 | 0.00 | 0.00 | 29 | 1007.4 |
| 20260504173509 | 20 | 195 | 12.9 | 25.7 | 319.79 | 0.00 | 0.00 | 28 | 1007.5 |
| 20260504173010 | 20 | 270 | 8.0 | 22.5 | 319.79 | 0.00 | 0.00 | 30 | 1007.6 |
| 20260504172509 | 20 | 174 | 11.3 | 25.7 | 319.79 | 0.00 | 0.00 | 27 | 1007.6 |
| 20260504171510 | 20 | 256 | 17.7 | 32.2 | 319.79 | 0.00 | 0.00 | 27 | 1007.5 |
| 20260504171009 | 20 | 264 | 11.3 | 33.8 | 319.79 | 0.00 | 0.00 | 29 | 1007.6 |
| 20260504170509 | 20 | 269 | 16.1 | 33.8 | 319.79 | 0.00 | 0.00 | 26 | 1007.9 |
| 20260504151009 | 17 | 287 | 11.3 | 35.4 | 319.79 | 0.00 | 0.00 | 36 | 1008.9 |
| 20260504150509 | 17 | 259 | 8.0 | 22.5 | 319.79 | 0.00 | 0.00 | 38 | 1009.0 |
| 20260504130509 | 13 | 302 | 14.5 | 22.5 | 319.79 | 0.00 | 0.00 | 44 | 1010.1 |
| 20260504110509 | 7 | 194 | 6.4 | 12.9 | 319.79 | 0.00 | 0.00 | 70 | 1010.5 |
| 20260504100509 | 6 | 211 | 3.2 | 3.2 | 319.79 | 0.00 | 0.00 | 78 | 1010.5 |
| 20260504081510 | 5 | 198 | 0.0 | 1.6 | 319.79 | 0.00 | 0.00 | 75 | 1010.6 |